Vorticity
nan nan nan nan nan nan nan nan nan nan nan nan nan nan nan nan nan nan nan nan nan nan nan nan nan nan nan nan nan nan nan nan nan nan nan nan nan nan nan nan nan nan nan nan nan
nan 7 8 7 7 7 5 5 6 7 6 7 6 8 8 9 11 16 21 7 20 32 13 9 8 9 5 7 3 2 7 8 9 3 10 3 8 2 4 6 2 2 9 11 nan
nan 8 7 6 7 7 6 7 6 6 7 8 8 8 8 8 15 29 16 -9 8 22 22 11 7 8 8 7 2 -1 3 3 10 4 13 6 7 7 7 3 5 8 5 5 nan
nan 7 8 8 7 6 6 6 6 7 8 8 9 9 11 14 3 11 -9 -14 9 11 19 17 14 10 9 10 9 3 6 2 -2 16 2 4 11 14 6 8 9 9 13 8 nan
nan 7 6 7 7 8 9 8 7 7 9 10 10 12 14 12 6 -3 7 13 3 4 10 17 19 15 5 4 11 10 10 8 0 2 9 18 1 10 9 6 9 14 13 9 nan
nan 8 8 7 8 8 8 8 8 9 10 13 14 15 13 4 10 12 12 12 4 2 4 6 14 16 16 9 4 9 13 8 7 4 7 14 13 7 8 9 5 14 9 7 nan
nan 7 8 8 9 9 8 8 9 10 14 15 14 15 11 7 4 7 12 11 10 6 8 7 9 7 19 24 9 3 12 14 9 4 4 7 18 8 6 7 8 9 7 7 nan
nan 6 6 8 8 8 9 8 10 13 16 12 13 14 9 12 12 10 9 12 12 15 13 5 7 9 8 15 20 13 4 11 17 0 9 2 8 11 10 4 6 9 9 9 nan
nan 7 6 8 8 9 10 8 13 17 12 16 17 8 12 6 1 7 6 6 8 13 15 10 6 6 13 18 10 12 13 10 8 7 6 1 2 15 10 6 7 7 10 8 nan
nan 7 7 8 8 11 13 21 21 13 16 18 5 5 -2 -1 4 9 13 11 5 10 9 6 3 6 12 14 7 9 9 6 9 13 5 -1 -0 -1 11 18 10 5 9 6 nan
nan 9 9 7 10 13 17 23 21 9 5 5 7 8 -0 7 12 14 16 15 14 6 9 8 -1 4 2 5 12 6 8 9 5 9 8 6 4 0 3 13 12 8 9 7 nan
nan 9 9 8 15 15 14 12 9 7 4 8 13 10 9 6 9 10 14 11 10 8 8 7 6 8 4 6 16 14 8 8 11 15 10 7 5 13 8 -0 6 12 10 8 nan
nan 8 9 10 17 16 7 4 9 14 11 14 11 12 10 4 8 11 9 9 10 13 12 4 8 14 12 0 10 25 17 7 9 8 9 6 15 15 13 2 -1 9 12 10 nan
nan 8 10 20 16 10 3 2 16 12 8 11 12 10 2 11 13 13 9 9 10 9 13 15 14 10 13 11 4 14 16 2 7 14 11 6 11 17 4 7 19 6 7 6 nan
nan 10 15 19 13 9 2 10 16 8 3 6 11 3 7 13 12 10 8 12 10 10 8 7 14 15 11 11 2 8 7 9 13 12 13 8 7 18 14 3 8 12 10 6 nan
nan 13 23 18 4 0 9 16 13 6 4 7 1 0 12 13 16 11 8 9 11 13 11 6 3 10 16 12 6 6 6 12 23 17 13 12 12 9 17 11 7 9 8 9 nan
nan 18 21 10 4 7 15 13 7 4 4 6 3 5 13 13 12 10 12 12 12 10 13 17 18 7 7 13 16 4 6 13 20 11 14 15 4 8 9 17 11 12 10 11 nan
nan 22 13 5 7 14 13 10 8 4 5 6 8 18 12 8 7 7 13 19 14 10 11 12 22 23 10 12 8 7 -1 0 11 16 10 8 8 22 8 6 16 16 12 7 nan
nan 18 4 3 13 12 12 9 5 5 7 9 13 15 4 10 12 10 10 11 6 13 12 14 12 10 16 20 7 5 10 3 -2 18 17 4 4 11 19 10 17 18 11 10 nan
nan 9 3 7 15 14 10 7 6 6 8 12 12 2 2 7 9 13 15 7 7 7 9 13 10 15 14 9 12 10 9 8 8 10 12 13 6 10 16 12 13 10 10 12 nan
nan 7 2 12 17 11 8 7 7 5 11 10 8 5 6 5 11 17 10 -1 4 7 14 19 10 11 15 18 8 4 7 5 6 6 12 14 4 12 21 15 12 13 14 12 nan
nan 6 6 13 17 7 6 8 10 8 11 11 8 8 4 11 18 11 8 0 -2 9 20 16 13 15 15 14 14 6 8 7 7 4 2 5 12 9 10 14 19 21 16 14 nan
nan 7 7 15 11 6 10 11 6 9 10 11 9 6 7 11 12 3 5 12 -0 9 19 7 15 14 14 11 18 12 14 7 4 13 9 4 11 12 14 13 13 14 12 11 nan
nan 10 9 12 7 5 9 9 6 13 10 8 12 3 5 14 10 11 5 -2 9 21 10 12 13 5 3 13 17 17 15 9 9 10 9 8 8 9 12 15 13 12 13 11 nan
nan 10 7 7 7 9 11 7 4 12 11 9 9 2 11 12 9 4 -2 11 20 9 8 21 8 3 17 20 16 12 5 6 7 11 15 12 6 7 13 16 17 15 15 15 nan
nan 10 9 8 7 11 11 5 5 8 12 9 2 2 11 12 8 -3 5 13 9 1 9 13 6 11 26 21 20 10 7 3 4 20 16 6 -1 7 15 15 12 14 16 16 nan
nan nan nan nan nan nan nan nan nan nan nan nan nan nan nan nan nan nan nan nan nan nan nan nan nan nan nan nan nan nan nan nan nan nan nan nan nan nan nan nan nan nan nan nan nan
CAPE
16 12 15 27 21 29 33 26 27 21 27 38 43 48 52 54 59 8 5 24 43 13 1 0 13 20 84 303 352 201 243 120 45 67 67 33 6 0 0 0 0 0 0 122 607
17 13 13 18 24 16 15 21 24 25 40 46 57 67 67 70 40 7 0 90 79 83 1 17 13 30 79 208 285 299 50 12 16 110 99 21 19 0 0 0 0 0 0 568 382
9 18 31 32 36 36 23 15 19 42 61 66 74 68 61 74 16 0 46 22 12 0 20 10 18 46 27 99 58 166 72 19 16 3 33 29 8 3 0 0 0 0 0 502 517
9 14 17 14 17 23 39 42 25 35 52 56 56 59 53 30 11 2 116 46 0 0 0 6 19 34 23 14 36 43 40 49 55 85 34 4 65 14 0 0 0 0 0 308 356
17 34 42 36 25 35 35 29 21 33 40 37 34 32 50 23 4 3 24 5 0 0 0 0 19 28 19 8 31 83 23 18 42 64 9 72 28 10 0 0 0 0 21 212 534
30 13 11 15 24 29 31 21 9 16 20 14 22 33 30 35 8 1 1 0 0 0 0 0 8 28 48 15 32 17 38 68 83 11 62 27 41 36 20 0 0 0 131 359 543
10 14 14 14 21 24 14 9 1 5 0 2 6 21 25 22 6 10 1 6 1 3 0 0 0 0 25 29 15 39 39 65 41 96 107 48 32 63 60 7 18 0 20 341 745
16 14 11 12 19 19 7 0 0 0 0 0 0 2 12 0 1 24 25 27 23 9 1 1 1 0 1 49 50 25 82 111 32 133 95 30 1 33 71 108 74 39 29 262 820
9 10 17 16 16 13 2 0 0 0 0 0 0 9 21 2 1 0 0 37 40 54 13 8 4 12 12 84 109 65 16 31 35 37 112 82 4 2 49 99 123 158 177 242 738
12 10 17 19 12 10 0 0 0 0 0 0 0 0 11 5 3 0 0 0 16 58 35 41 33 35 10 79 50 29 35 9 17 52 138 63 2 0 15 102 136 182 269 277 228
16 21 19 10 6 1 0 0 0 0 0 0 0 0 0 0 0 0 0 0 17 45 43 35 49 24 12 4 64 61 61 15 8 27 135 78 22 0 0 6 138 129 275 215 243
12 13 12 2 2 0 0 0 10 14 6 0 0 0 0 0 0 5 0 9 14 26 35 45 45 2 0 6 11 49 63 8 16 7 93 68 49 54 0 6 20 61 275 146 193
10 7 4 0 0 0 0 1 9 18 13 0 0 0 0 0 0 1 1 17 19 28 28 30 14 2 0 8 31 84 41 61 40 22 90 49 66 80 32 1 7 18 241 241 149
8 7 5 0 0 0 0 0 3 22 9 0 0 1 0 0 0 1 10 19 24 22 28 31 12 0 3 8 13 24 22 37 67 38 126 55 14 37 34 35 32 5 90 216 122
8 5 5 0 0 0 0 0 0 17 1 0 0 0 0 4 0 27 28 26 15 29 16 11 15 1 3 13 6 11 10 2 28 13 108 55 69 8 17 14 24 26 19 29 179
2 2 0 0 1 0 0 0 1 16 0 0 0 0 0 4 1 6 29 14 18 18 18 15 10 33 9 0 7 8 0 0 67 106 101 152 8 0 37 0 0 2 25 4 56
0 0 0 0 0 0 0 0 13 2 0 0 0 0 0 5 4 1 32 16 19 27 40 29 18 1 9 18 1 23 17 53 149 152 103 37 48 23 2 8 0 10 1 5 18
0 0 0 0 0 0 0 3 0 0 0 0 0 0 10 8 0 0 8 38 175 75 20 42 23 0 0 12 3 48 17 15 99 72 33 17 105 0 0 0 0 0 4 45 27
0 0 0 0 0 0 0 14 1 0 0 5 0 2 17 17 3 10 2 37 121 26 32 24 13 2 0 0 7 13 54 0 28 1 64 16 0 2 0 0 0 0 21 33 50
0 0 0 0 0 0 28 1 0 0 0 6 19 8 22 21 6 13 11 15 15 43 28 10 21 14 0 7 27 18 8 11 34 51 5 3 2 17 0 0 0 0 0 12 66
0 0 0 0 0 6 13 4 0 0 0 3 17 16 28 22 1 13 15 5 10 6 0 39 92 37 4 2 17 27 45 54 18 6 32 38 0 4 0 0 0 0 0 3 0
0 0 0 0 1 23 13 0 0 0 0 2 9 9 14 0 0 8 17 21 9 4 6 22 20 118 8 3 3 48 32 34 7 0 0 0 1 0 0 0 0 0 0 1 0
0 0 0 0 0 2 0 0 0 0 0 0 0 5 6 0 0 6 10 3 1 2 8 37 16 106 41 7 2 14 44 42 11 0 0 5 0 0 0 0 0 0 0 0 0
0 6 11 5 3 1 0 0 0 0 0 0 0 5 0 0 0 0 2 0 0 0 4 27 24 28 19 34 62 72 54 18 36 1 5 3 0 0 0 0 0 0 0 0 0
0 0 0 6 8 1 1 1 0 0 0 0 0 0 0 0 0 0 0 0 0 0 0 12 7 18 9 0 3 21 16 2 3 21 38 0 0 0 0 0 0 0 0 0 0
0 0 2 3 0 0 0 6 1 0 0 0 0 0 0 0 0 1 0 0 4 0 1 12 6 6 13 0 19 16 11 6 7 0 0 0 0 0 0 0 0 0 0 0 0
0 1 4 1 2 9 7 5 1 3 0 0 0 2 0 0 0 0 0 3 14 11 4 9 18 8 30 1 74 61 58 24 2 1 0 0 0 0 0 0 0 0 0 0 0